Location: Unspecified
(0.0000°N, 0.0000°E)
Time: 11:15:44
(UTC+00:00)

Courier 1B Rocket - Pass Details

Date: 25 November 2019
Orbit: 920 x 1202 km, 28.2° (Epoch: 13 December)

Event Time Altitude Azimuth Distance (km) Brightness Sun altitude
Rises 10:09:08 0° 266° (W) 3,550 7.7 58.4°
Reaches altitude 10° 10:12:11 10° 278° (W) 2,602 7.1 58.9°
Maximum altitude 10:17:13 26° 333° (NNW) 1,743 6.4 59.8°
Drops below altitude 10° 10:22:22 10° 28° (NNE) 2,650 7.3 60.7°
Sets 10:25:31 0° 40° (NE) 3,629 8.0 61.3°
